Regional Weather Roundup
Issued by NWS Grand Forks, ND

Home | Current Version | Previous Version | Graphics & Text | Print | Product List | Glossary On
Versions: 1 2 3 4 5 6 7 8 9 10 11 12 13 14 15 16 17 18 19 20 21 22 23 24 25 26 27 28 29 30 31 32 33 34 35 36 37 38 39 40 41 42 43 44 45 46 47 48 49 50
000
ASUS43 KFGF 200631
RWRFGF
PRAIRIE TO PINES  WEATHER ROUNDUP
NATIONAL WEATHER SERVICE EASTERN NORTH DAKOTA/GRAND FORKS ND
1200 AM CST FRI JAN 20 2017

 **SATELLITE DATA USED TO AUGMENT SKY COVER AT AUTOMATED STATIONS**
 *****  WEATHER ACROSS EASTERN NORTH DAKOTA  *****

CITY           SKY/WX    TMP DP  RH WIND       PRES   REMARKS
GRAND FORKS    FOG       35  32  88 S10       29.55S VSB 1
6HR MIN TEMP:  33; 6HR MAX TEMP:  35;

GRAND FRKS AFB CLOUDY    32  32 100 S8        29.54F FOG     WCI  25
DEVILS LAKE    LGT SNOW  24  23  96 S15       29.49S FOG     WCI  11
6HR MIN TEMP:  21; 6HR MAX TEMP:  27; 6HR PCP: TRACE;

FARGO          CLOUDY    47  36  65 SE14      29.56F HAZE
WAHPETON ARPT  CLOUDY    34  32  93 SE9       29.58S
$$

 ***** WEATHER ACROSS CENTRAL AND WESTERN NORTH DAKOTA  *****

CITY           SKY/WX    TMP DP  RH WIND       PRES   REMARKS
BISMARCK       FAIR      12  11  95 SE5       29.46F FOG     WCI   4
6HR MIN TEMP:  10; 6HR MAX TEMP:  21;

MINOT          FAIR      23  19  85 CALM      29.40S
6HR MIN TEMP:  23; 6HR MAX TEMP:  31;

JAMESTOWN      FOG       33  33 100 SE6       29.49S VSB 1/2
6HR MIN TEMP:  28; 6HR MAX TEMP:  33;

MINOT AFB      CLEAR     17  14  89 CALM      29.39S
GARRISON         N/A     12  10  92 E3        29.42S
WILLISTON      FAIR      14  12  92 CALM      29.43F
6HR MIN TEMP:  14; 6HR MAX TEMP:  27;

DICKINSON      FAIR      20  16  84 W10       29.39S WCI   9
6HR MIN TEMP:  17; 6HR MAX TEMP:  28;

HETTINGER      FAIR      17  14  88 NW5       29.42S WCI  10
6HR MIN TEMP:  15; 6HR MAX TEMP:  28;

$$

 *****  OTHER AIRPORT OBSERVATIONS IN OUR AREA  *****

CITY           SKY/WX    TMP DP  RH WIND       PRES   REMARKS
WALHALLA       NOT AVBL
GRAFTON AIRPOR CLOUDY    34  34 100 S13       29.55F FOG     WCI  25
VALLEY CITY AR FOG       32  32 100 S9        29.53S VSB 1/2 WCI  24
CANDO          NOT AVBL
CAVALIER APRT    N/A     32  32 100 S16       29.51F WCI  21
GWINNER        CLOUDY    34  34 100 SE10      29.53F
SHEYENNE NWR     N/A     35  35  98 S12       29.95S
ROLLA            N/A    N/A N/A N/A MISG        N/A
 ***** THE ABOVE OBSERVATIONS ARE NON NWS ARE NOT QUALITY
       CONTROLLED AND MAY MIS-REPORT RAIN FOR SNOW...
$$

  *****  WEATHER ACROSS NORTHERN MINNESOTA  *****

CITY           SKY/WX    TMP DP  RH WIND       PRES   REMARKS
FLAG ISLAND    FOG       25  25 100 S5        29.56S VSB 1/2 WCI  19
WARROAD        CLOUDY    36  32  87 S7        29.58R FOG
ROSEAU         FOG       36  30  80 SW9       29.57S VSB 3/4
HALLOCK        CLOUDY    34  34 100 S14       29.54F FOG     WCI  24
THF RVR FALLS  CLOUDY    34  34 100 S16       29.58S FOG     WCI  23
6HR MIN TEMP:  32; 6HR MAX TEMP:  36; 6HR PCP: TRACE;

BAUDETTE       FOG       37  36  96 S10       29.57S VSB 1
6HR MIN TEMP:  30; 6HR MAX TEMP:  37;

WASKISH        CLOUDY    37  37 100 S3        29.58F FOG
CROOKSTON      CLOUDY    34  34 100 S16       29.57F FOG     WCI  23
STEPHEN NDAWN    N/A     34  34 100 S13         N/A  WCI  25
GREENBUSH NDAW   N/A     34  34 100 S20         N/A  WCI  22
$$
  *****  WEATHER ACROSS CENTRAL AND WEST MINNESOTA  *****

CITY           SKY/WX    TMP DP  RH WIND       PRES   REMARKS
FOSSTON        FOG       34  32  93 S9        29.58F VSB 3/4
BEMIDJI        CLOUDY    34  34 100 S8G17     29.59S FOG
PARK RAPIDS    FOG       34  31  88 S8        29.59F VSB 1/4
6HR MIN TEMP:  34; 6HR MAX TEMP:  39;

ELBOW LAKE     SNOW      34  34 100 SE10      29.59S VSB 1/2
6HR MIN TEMP:  34; 6HR MAX TEMP:  35;

WADENA         FOG       34  34 100 SE3       29.60S VSB 1/4
DETROIT LAKES  FOG       34  34 100 S6        29.58F VSB 3/4
MOORHEAD       CLOUDY    36  34  93 S12       29.57F FOG
FERGUS FALLS   FOG       36  36 100 SE12      29.62F VSB 1
MORRIS MN      FOG       34  34 100 SE9       29.59F VSB 1/4
STAPLES        CLOUDY    34  34 100 CALM      29.61S FOG
$$
  *****  WEATHER ELSEWHERE ACROSS MINNESOTA  *****

CITY           SKY/WX    TMP DP  RH WIND       PRES   REMARKS
DULUTH         CLOUDY    33  32  96 SE6       29.66F
6HR MIN TEMP:  32; 6HR MAX TEMP:  38;

INTRNTL FALLS  CLOUDY    37  35  92 CALM      29.59F FOG
6HR MIN TEMP:  34; 6HR MAX TEMP:  38;

ELY            FAIR      34  32  93 CALM      29.64F
CLOQUET        FAIR      34  30  86 CALM      29.66F FOG
WHEATON        CLOUDY    41  41 100 SE12      29.59F FOG
BRAINERD       CLOUDY    36  32  85 S9        29.63F
6HR MIN TEMP:  33; 6HR MAX TEMP:  37;

HIBBING        FOG       21  21 100 SE3       29.64F VSB 1/4
6HR MIN TEMP:  20; 6HR MAX TEMP:  31;

ALEXANDRIA     FOG       34  34 100 SE7       29.61S VSB 1/2
6HR MIN TEMP:  33; 6HR MAX TEMP:  34;

SAINT CLOUD    CLOUDY    34  34 100 E5        29.64F FOG
6HR MIN TEMP:  34; 6HR MAX TEMP:  37;

MINNEAPOLIS    CLOUDY    36  33  89 SE7       29.67F FOG
6HR MIN TEMP:  36; 6HR MAX TEMP:  37;

$$

  *****  WEATHER ACROSS SOUTH DAKOTA  *****

CITY           SKY/WX    TMP DP  RH WIND       PRES   REMARKS
SIOUX FALLS    CLOUDY    37  37 100 S9        29.58F FOG
6HR MIN TEMP:  37; 6HR MAX TEMP:  38; 6HR PCP: TRACE;

BROOKINGS      MIX PCPN  35  35 100 SE14      29.56S FOG
WATERTOWN      CLOUDY    34  34 100 S12       29.54F FOG
6HR MIN TEMP:  34; 6HR MAX TEMP:  35;

HURON          CLOUDY    36  36 100 SE13      29.51F
6HR MIN TEMP:  36; 6HR MAX TEMP:  37;

SISSETON         N/A     34  34 100 S9        29.55F
ABERDEEN       CLOUDY    34  32  92 S12       29.51F FOG
6HR MIN TEMP:  33; 6HR MAX TEMP:  34;

MITCHELL       CLOUDY    39  38  96 S15       29.54S
PIERRE         FOG       22  20  92 W3        29.44F VSB 1/4
6HR MIN TEMP:  16; 6HR MAX TEMP:  23;

MOBRIDGE       FOG       25  22  88 N3        29.43S VSB 1/2
RAPID CITY     FAIR      25  17  72 NW5       29.42S WCI  19
6HR MIN TEMP:  24; 6HR MAX TEMP:  34;

$$

  *****  SOME WEATHER IN NEARBY STATES *****

CITY           SKY/WX    TMP DP  RH WIND       PRES   REMARKS
GLASGOW MT     FAIR      27  23  85 S8        29.44R WCI  19
6HR MIN TEMP:  24; 6HR MAX TEMP:  30;

GREAT FALLS MT CLOUDY    34  28  79 SW8       29.48S
6HR MIN TEMP:  34; 6HR MAX TEMP:  40;

CHEYENNE WY    FAIR      31  19  61 W10       29.50F WCI  22
6HR MIN TEMP:  31; 6HR MAX TEMP:  43;

SCOTTSBLUFF NE FAIR      30  22  72 N5        29.50F
6HR MIN TEMP:  30; 6HR MAX TEMP:  44;

OMAHA NE       CLOUDY    39  36  89 CALM      29.60F FOG
6HR MIN TEMP:  38; 6HR MAX TEMP:  42; 6HR PCP: TRACE;

DES MOINES IA  FOG       38  36  92 CALM      29.62F VSB 1/8
6HR MIN TEMP:  37; 6HR MAX TEMP:  38; 6HR PCP: TRACE;

DAVENPORT IA   FOG       36  36 100 E6        29.64F VSB 1/2
6HR MIN TEMP:  36; 6HR MAX TEMP:  38; 6HR PCP:  0.09;

CHICAGO IL     LGT RAIN  38  37  97 NE10      29.67F FOG
6HR MIN TEMP:  37; 6HR MAX TEMP:  39; 6HR PCP:  0.41;

EAU CLAIRE WI  LGT RAIN  36  33  89 E7        29.71F FOG
6HR MIN TEMP:  34; 6HR MAX TEMP:  39; 6HR PCP:  0.02;

LA CROSSE WI   LGT RAIN  38  36  92 CALM      29.70F FOG
6HR MIN TEMP:  38; 6HR MAX TEMP:  40; 6HR PCP:  0.11;

$$

  *****  SOME NATIONAL WEATHER *****

CITY           SKY/WX    TMP DP  RH WIND       PRES   REMARKS
LA GUARDIA NY  CLOUDY    43  32  65 E8        30.04R
6HR MIN TEMP:  43; 6HR MAX TEMP:  45;

RALEIGH NC     MOCLDY    49  41  74 SE5       29.98F
6HR MIN TEMP:  45; 6HR MAX TEMP:  52;

ATLANTA GA     CLOUDY    63  62  97 S13       29.78F
6HR MIN TEMP:  59; 6HR MAX TEMP:  69; 6HR PCP:  0.34;

NEW ORLEANS LA FAIR      62  62 100 S5        29.83F
6HR MIN TEMP:  62; 6HR MAX TEMP:  66; 6HR PCP: TRACE;

OKLAHOMA CITY  FOG       43  43 100 S7        29.53S VSB 1/4
6HR MIN TEMP:  41; 6HR MAX TEMP:  52;

ALBUQUERQUE NM MOCLDY    41  32  70 SW12G21   29.78F
6HR MIN TEMP:  38; 6HR MAX TEMP:  46; 6HR PCP: TRACE;

SALT LAKE CITY FOG       31  30  96 CALM      29.69F VSB 1/8
6HR MIN TEMP:  29; 6HR MAX TEMP:  31; 6HR PCP: TRACE;

LOS ANGELES CA RAIN      56  52  86 SW10      29.91R
6HR MIN TEMP:  54; 6HR C1F1C2F2C3F3C4F4C5F5C6F6C7F7C8F8C9F9CaFaCbFbCcFcCd!



USA.gov is the U.S. government's official web portal to all federal, state and local government web resources and services.